Port Hope, MI

12:13 AM EDT on July 24, 2017 (GMT -0400)
Port Hope

Weather History for KP58 - November, 2012

Change the Weather History Date:

Saturday, November 3, 2012

  Actual Average Record
Temperature  
Mean Temperature 38 °F -  
Max Temperature 39 °F 49 °F 66 °F (2005)
Min Temperature 36 °F 37 °F 27 °F (2006)
Degree Days  
Heating Degree Days 28    
Moisture  
Dew Point 31 °F    
Average Humidity 75    
Maximum Humidity 89    
Minimum Humidity 65    
Precipitation  
Precipitation 0.08 in - - ()
Sea Level Pressure  
Sea Level Pressure 30.15 in    
Wind  
Wind Speed 9 mph (NNW)    
Max Wind Speed 13 mph    
Max Gust Speed 28 mph    
Averages and records for this station are not official NWS values.
T = Trace of Precipitation, MM = Missing Value Source: NWS Daily Summary

Daily Weather History Graph

Daily Weather History Graph

Search for Another Location

Airport or City:

Trip Planner

Search our weather history database for the weather conditions in past years. The results will help you decide how hot, cold, wet, or windy it might be!

Date:

Astronomy

Nov. 03, 2012 Rise Set
Actual Time 8:10 AM EDT 6:17 PM EDT
Civil Twilight 7:40 AM EDT 6:48 PM EDT
Nautical Twilight 7:06 AM EDT 7:22 PM EDT
Astronomical Twilight 6:32 AM EDT 7:56 PM EDT
Moon 9:54 PM EDT (11/3) 12:18 PM EDT (11/3)
Length of Visible Light 11h 07m
Length of Day
10h 06m
Waning Gibbous, 80% of the Moon is Illuminated
Nov 3
Waning Gibbous
Nov 6
Last Quarter
Nov 13
New
Nov 20
First Quarter
Nov 28
Full

Hourly Weather History & Observations

Time (EDT) Temp. Windchill Dew Point Humidity Pressure Visibility Wind Dir Wind Speed Gust Speed Precip Events Conditions
12:51 AM 39.0 °F 32.3 °F 33.1 °F 79% 30.05 in - NW 10.4 mph - N/A   Unknown
1:51 AM 39.9 °F 32.5 °F 30.9 °F 70% 30.06 in - North 12.7 mph 27.6 mph N/A   Unknown
2:51 AM 39.9 °F 35.1 °F 30.0 °F 68% 30.07 in - Variable 6.9 mph - N/A   Unknown
3:51 AM 39.9 °F 33.9 °F 32.0 °F 73% 30.08 in - North 9.2 mph 20.7 mph N/A   Unknown
4:51 AM 39.0 °F 34.8 °F 30.0 °F 70% 30.09 in - North 5.8 mph - N/A   Unknown
5:51 AM 39.9 °F 34.5 °F 30.0 °F 68% 30.10 in - North 8.1 mph - N/A   Unknown
6:51 AM 39.0 °F 32.3 °F 30.9 °F 73% 30.11 in - North 10.4 mph 21.9 mph N/A   Unknown
7:51 AM 39.0 °F 32.3 °F 30.0 °F 70% 30.13 in - North 10.4 mph 20.7 mph N/A   Unknown
8:51 AM 37.0 °F 32.4 °F 33.1 °F 86% 30.15 in - NNW 5.8 mph - 0.01 in   Unknown
9:51 AM 37.9 °F 32.7 °F 32.0 °F 79% 30.15 in - NNW 6.9 mph - 0.01 in   Unknown
10:51 AM 37.0 °F 29.8 °F 33.1 °F 86% 30.17 in - NW 10.4 mph 18.4 mph N/A   Unknown
11:51 AM 36.0 °F 27.5 °F 33.1 °F 89% 30.18 in - WNW 12.7 mph 19.6 mph N/A   Unknown
12:51 PM 36.0 °F 29.6 °F 33.1 °F 89% 30.18 in - NW 8.1 mph 17.3 mph 0.01 in   Unknown
1:51 PM 37.0 °F 30.4 °F 33.1 °F 86% 30.17 in - NW 9.2 mph - 0.04 in   Unknown
2:51 PM 37.9 °F 33.5 °F 33.1 °F 83% 30.17 in - NNW 5.8 mph - 0.01 in   Unknown
3:51 PM 37.9 °F 32.7 °F 30.9 °F 76% 30.18 in - NNW 6.9 mph - N/A   Unknown
4:51 PM 37.0 °F 31.6 °F 30.0 °F 76% 30.17 in - NW 6.9 mph - N/A   Unknown
5:51 PM 37.0 °F 31.0 °F 28.9 °F 73% 30.18 in - NW 8.1 mph - N/A   Unknown
6:51 PM 37.0 °F 32.4 °F 28.0 °F 70% 30.18 in - NW 5.8 mph - N/A   Unknown
7:51 PM 37.0 °F 33.3 °F 28.0 °F 70% 30.19 in - NNW 4.6 mph - N/A   Unknown
8:51 PM 37.0 °F 31.6 °F 28.0 °F 70% 30.20 in - Variable 6.9 mph - N/A   Unknown
9:51 PM 37.0 °F 31.6 °F 26.1 °F 65% 30.19 in - North 6.9 mph 18.4 mph N/A   Unknown
10:51 PM 37.0 °F 33.3 °F 28.0 °F 70% 30.19 in - NNW 4.6 mph - N/A   Unknown
11:51 PM 37.0 °F - 27.0 °F 67% 30.18 in - Calm Calm - N/A   Unknown